Year,Month,Day,Hour,Minute,Value (Times are PST for temperature in C)
2010,08,16,00,00,21.20
2010,08,16,00,01,21.20
2010,08,16,00,02,21.20
2010,08,16,00,03,21.20
2010,08,16,00,04,21.30
2010,08,16,00,05,21.30
2010,08,16,00,06,21.30
2010,08,16,00,07,21.40
2010,08,16,00,08,21.50
2010,08,16,00,09,21.50
2010,08,16,00,10,21.60
2010,08,16,00,11,21.60
2010,08,16,00,12,21.60
2010,08,16,00,13,21.60
2010,08,16,00,14,21.70
2010,08,16,00,15,21.70
2010,08,16,00,16,21.70
2010,08,16,00,17,21.70
2010,08,16,00,18,21.70
2010,08,16,00,19,21.70
2010,08,16,00,20,21.70
2010,08,16,00,21,21.70
2010,08,16,00,22,21.70
2010,08,16,00,23,21.60
2010,08,16,00,24,21.70
2010,08,16,00,25,21.80
2010,08,16,00,26,21.80
2010,08,16,00,27,21.90
2010,08,16,00,28,22.00
2010,08,16,00,29,22.00
2010,08,16,00,30,22.00
2010,08,16,00,31,22.10
2010,08,16,00,32,22.00
2010,08,16,00,33,22.00
2010,08,16,00,34,22.00
2010,08,16,00,35,22.00
2010,08,16,00,36,21.90
2010,08,16,00,37,21.90
2010,08,16,00,38,21.90
2010,08,16,00,39,22.00
2010,08,16,00,40,22.10
2010,08,16,00,41,22.20
2010,08,16,00,42,22.10
2010,08,16,00,43,22.10
2010,08,16,00,44,22.00
2010,08,16,00,45,21.90
2010,08,16,00,46,21.80
2010,08,16,00,47,21.80
2010,08,16,00,48,21.70
2010,08,16,00,49,21.70
2010,08,16,00,50,21.80
2010,08,16,00,51,21.70
2010,08,16,00,52,21.80
2010,08,16,00,53,21.80
2010,08,16,00,54,21.80
2010,08,16,00,55,21.80
2010,08,16,00,56,21.80
2010,08,16,00,57,21.80
2010,08,16,00,58,21.80
2010,08,16,00,59,21.90
2010,08,16,01,00,21.90
2010,08,16,01,01,21.90
2010,08,16,01,02,22.00
2010,08,16,01,03,22.00
2010,08,16,01,04,21.90
2010,08,16,01,05,21.90
2010,08,16,01,06,21.90
2010,08,16,01,07,21.90
2010,08,16,01,08,21.90
2010,08,16,01,09,21.90
2010,08,16,01,10,22.00
2010,08,16,01,11,22.00
2010,08,16,01,12,22.00
2010,08,16,01,13,22.00
2010,08,16,01,14,22.00
2010,08,16,01,15,21.90
2010,08,16,01,16,21.90
2010,08,16,01,17,21.90
2010,08,16,01,18,21.80
2010,08,16,01,19,21.80
2010,08,16,01,20,21.80
2010,08,16,01,21,21.90
2010,08,16,01,22,21.90
2010,08,16,01,23,22.00
2010,08,16,01,24,22.10
2010,08,16,01,25,22.20
2010,08,16,01,26,22.40
2010,08,16,01,27,22.50
2010,08,16,01,28,22.70
2010,08,16,01,29,22.90
2010,08,16,01,30,23.30
2010,08,16,01,31,23.50
2010,08,16,01,32,23.60
2010,08,16,01,33,23.70
2010,08,16,01,34,23.80
2010,08,16,01,35,23.80
2010,08,16,01,36,23.80
2010,08,16,01,37,23.90
2010,08,16,01,38,23.80
2010,08,16,01,39,23.80
2010,08,16,01,40,23.90
2010,08,16,01,41,23.90
2010,08,16,01,42,23.80
2010,08,16,01,43,23.80
2010,08,16,01,44,23.80
2010,08,16,01,45,23.80
2010,08,16,01,46,23.80
2010,08,16,01,47,23.90
2010,08,16,01,48,24.30
2010,08,16,01,49,24.60
2010,08,16,01,50,24.90
2010,08,16,01,51,25.10
2010,08,16,01,52,25.40
2010,08,16,01,53,25.60
2010,08,16,01,54,25.90
2010,08,16,01,55,26.00
2010,08,16,01,56,26.20
2010,08,16,01,57,26.40
2010,08,16,01,58,26.50
2010,08,16,01,59,26.60
2010,08,16,02,00,26.60
2010,08,16,02,01,26.70
2010,08,16,02,02,26.80
2010,08,16,02,03,26.90
2010,08,16,02,04,26.90
2010,08,16,02,05,27.00
2010,08,16,02,06,27.00
2010,08,16,02,07,27.10
2010,08,16,02,08,27.10
2010,08,16,02,09,27.10
2010,08,16,02,10,27.00
2010,08,16,02,11,27.00
2010,08,16,02,12,27.00
2010,08,16,02,13,27.00
2010,08,16,02,14,27.00
2010,08,16,02,15,26.90
2010,08,16,02,16,26.90
2010,08,16,02,17,26.90
2010,08,16,02,18,26.80
2010,08,16,02,19,26.70
2010,08,16,02,20,26.50
2010,08,16,02,21,26.40
2010,08,16,02,22,26.20
2010,08,16,02,23,26.10
2010,08,16,02,24,26.00
2010,08,16,02,25,25.90
2010,08,16,02,26,25.90
2010,08,16,02,27,25.80
2010,08,16,02,28,25.70
2010,08,16,02,29,25.60
2010,08,16,02,30,25.50
2010,08,16,02,31,25.50
2010,08,16,02,32,25.40
2010,08,16,02,33,25.30
2010,08,16,02,34,25.20
2010,08,16,02,35,25.10
2010,08,16,02,36,25.00
2010,08,16,02,37,24.90
2010,08,16,02,38,24.80
2010,08,16,02,39,24.70
2010,08,16,02,40,24.60
2010,08,16,02,41,24.50
2010,08,16,02,42,24.40
2010,08,16,02,43,24.40
2010,08,16,02,44,24.30
2010,08,16,02,45,24.30
2010,08,16,02,46,24.20
2010,08,16,02,47,24.10
2010,08,16,02,48,24.10
2010,08,16,02,49,24.00
2010,08,16,02,50,24.00
2010,08,16,02,51,24.10
2010,08,16,02,52,24.00
2010,08,16,02,53,24.00
2010,08,16,02,54,24.00
2010,08,16,02,55,24.00
2010,08,16,02,56,24.00
2010,08,16,02,57,24.00
2010,08,16,02,58,24.00
2010,08,16,02,59,24.00
2010,08,16,03,00,24.00
2010,08,16,03,01,24.00
2010,08,16,03,02,24.00
2010,08,16,03,03,24.00
2010,08,16,03,06,24.10
2010,08,16,03,07,24.10
2010,08,16,03,08,24.10
2010,08,16,03,09,24.10
2010,08,16,03,10,24.00
2010,08,16,03,11,24.00
2010,08,16,03,12,23.90
2010,08,16,03,13,23.80
2010,08,16,03,14,23.70
2010,08,16,03,15,23.60
2010,08,16,03,16,23.60
2010,08,16,03,17,23.50
2010,08,16,03,18,23.40
2010,08,16,03,19,23.40
2010,08,16,03,20,23.40
2010,08,16,03,21,23.40
2010,08,16,03,22,23.40
2010,08,16,03,23,23.40
2010,08,16,03,24,23.40
2010,08,16,03,25,23.50
2010,08,16,03,26,23.60
2010,08,16,03,27,23.60
2010,08,16,03,28,23.70
2010,08,16,03,29,23.60
2010,08,16,03,30,23.60
2010,08,16,03,31,23.60
2010,08,16,03,32,23.60
2010,08,16,03,33,23.60
2010,08,16,03,34,23.60
2010,08,16,03,35,23.60
2010,08,16,03,36,23.60
2010,08,16,03,37,23.60
2010,08,16,03,38,23.60
2010,08,16,03,39,23.50
2010,08,16,03,40,23.50
2010,08,16,03,41,23.40
2010,08,16,03,42,23.40
2010,08,16,03,43,23.30
2010,08,16,03,44,23.30
2010,08,16,03,45,23.30
2010,08,16,03,46,23.20
2010,08,16,03,47,23.20
2010,08,16,03,48,23.20
2010,08,16,03,49,23.20
2010,08,16,03,50,23.10
2010,08,16,03,51,23.10
2010,08,16,03,52,23.10
2010,08,16,03,53,23.10
2010,08,16,03,54,23.10
2010,08,16,03,55,23.00
2010,08,16,03,56,23.00
2010,08,16,03,57,23.00
2010,08,16,03,58,23.00
2010,08,16,03,59,23.10
2010,08,16,04,00,23.10
2010,08,16,04,01,23.10
2010,08,16,04,02,23.20
2010,08,16,04,03,23.10
2010,08,16,04,04,23.10
2010,08,16,04,05,23.10
2010,08,16,04,06,23.10
2010,08,16,04,07,23.10
2010,08,16,04,08,23.10
2010,08,16,04,09,23.00
2010,08,16,04,10,23.00
2010,08,16,04,11,22.90
2010,08,16,04,12,22.90
2010,08,16,04,13,22.90
2010,08,16,04,14,22.80
2010,08,16,04,15,22.80
2010,08,16,04,16,22.80
2010,08,16,04,17,22.80
2010,08,16,04,18,22.80
2010,08,16,04,19,22.80
2010,08,16,04,20,22.90
2010,08,16,04,21,22.90
2010,08,16,04,22,22.90
2010,08,16,04,23,22.90
2010,08,16,04,24,22.90
2010,08,16,04,25,23.00
2010,08,16,04,26,23.10
2010,08,16,04,27,23.20
2010,08,16,04,28,23.30
2010,08,16,04,29,23.40
2010,08,16,04,30,23.40
2010,08,16,04,31,23.50
2010,08,16,04,32,23.60
2010,08,16,04,33,23.70
2010,08,16,04,34,23.80
2010,08,16,04,35,23.90
2010,08,16,04,36,23.90
2010,08,16,04,37,23.90
2010,08,16,04,38,23.90
2010,08,16,04,39,23.80
2010,08,16,04,40,23.80
2010,08,16,04,41,23.80
2010,08,16,04,42,23.70
2010,08,16,04,43,23.70
2010,08,16,04,44,23.60
2010,08,16,04,45,23.60
2010,08,16,04,46,23.60
2010,08,16,04,47,23.50
2010,08,16,04,48,23.50
2010,08,16,04,49,23.40
2010,08,16,04,50,23.40
2010,08,16,04,51,23.40
2010,08,16,04,52,23.40
2010,08,16,04,53,23.30
2010,08,16,04,54,23.30
2010,08,16,04,55,23.30
2010,08,16,04,56,23.30
2010,08,16,04,57,23.20
2010,08,16,04,58,23.20
2010,08,16,04,59,23.20
2010,08,16,05,00,23.20
2010,08,16,05,01,23.10
2010,08,16,05,02,23.10
2010,08,16,05,03,23.10
2010,08,16,05,04,23.00
2010,08,16,05,05,23.00
2010,08,16,05,06,23.00
2010,08,16,05,07,23.00
2010,08,16,05,08,22.90
2010,08,16,05,09,22.90
2010,08,16,05,10,22.90
2010,08,16,05,11,22.90
2010,08,16,05,12,22.90
2010,08,16,05,13,22.80
2010,08,16,05,14,22.70
2010,08,16,05,15,22.70
2010,08,16,05,16,22.70
2010,08,16,05,17,22.70
2010,08,16,05,18,22.60
2010,08,16,05,19,22.60
2010,08,16,05,20,22.60
2010,08,16,05,21,22.50
2010,08,16,05,22,22.50
2010,08,16,05,23,22.50
2010,08,16,05,24,22.40
2010,08,16,05,25,22.40
2010,08,16,05,26,22.30
2010,08,16,05,27,22.30
2010,08,16,05,28,22.30
2010,08,16,05,29,22.30
2010,08,16,05,30,22.30
2010,08,16,05,31,22.20
2010,08,16,05,32,22.20
2010,08,16,05,33,22.20
2010,08,16,05,34,22.20
2010,08,16,05,35,22.10
2010,08,16,05,36,22.10
2010,08,16,05,37,22.10
2010,08,16,05,38,22.10
2010,08,16,05,39,22.10
2010,08,16,05,40,22.00
2010,08,16,05,41,22.00
2010,08,16,05,42,21.90
2010,08,16,05,43,21.90
2010,08,16,05,44,21.90
2010,08,16,05,45,22.00
2010,08,16,05,46,22.10
2010,08,16,05,47,22.10
2010,08,16,05,48,22.10
2010,08,16,05,49,22.10
2010,08,16,05,50,22.00
2010,08,16,05,51,22.00
2010,08,16,05,52,21.90
2010,08,16,05,53,21.80
2010,08,16,05,54,21.80
2010,08,16,05,55,21.70
2010,08,16,05,56,21.70
2010,08,16,05,57,21.80
2010,08,16,05,58,21.80
2010,08,16,05,59,21.80
2010,08,16,06,00,21.70
2010,08,16,06,01,21.70
2010,08,16,06,02,21.60
2010,08,16,06,03,21.60
2010,08,16,06,04,21.60
2010,08,16,06,05,21.60
2010,08,16,06,06,21.60
2010,08,16,06,07,21.50
2010,08,16,06,08,21.50
2010,08,16,06,09,21.50
2010,08,16,06,10,21.60
2010,08,16,06,11,21.60
2010,08,16,06,12,21.60
2010,08,16,06,13,21.60
2010,08,16,06,14,21.50
2010,08,16,06,15,21.50
2010,08,16,06,16,21.50
2010,08,16,06,17,21.50
2010,08,16,06,18,21.40
2010,08,16,06,19,21.40
2010,08,16,06,20,21.40
2010,08,16,06,21,21.30
2010,08,16,06,22,21.30
2010,08,16,06,23,21.20
2010,08,16,06,24,21.10
2010,08,16,06,25,21.00
2010,08,16,06,26,21.00
2010,08,16,06,27,20.90
2010,08,16,06,28,20.90
2010,08,16,06,29,20.80
2010,08,16,06,30,20.80
2010,08,16,06,31,20.80
2010,08,16,06,32,20.70
2010,08,16,06,33,20.60
2010,08,16,06,34,20.60
2010,08,16,06,35,20.50
2010,08,16,06,36,20.50
2010,08,16,06,37,20.50
2010,08,16,06,38,20.50
2010,08,16,06,39,20.40
2010,08,16,06,40,20.40
2010,08,16,06,41,20.40
2010,08,16,06,42,20.30
2010,08,16,06,43,20.30
2010,08,16,06,44,20.30
2010,08,16,06,45,20.30
2010,08,16,06,46,20.30
2010,08,16,06,47,20.30
2010,08,16,06,48,20.30
2010,08,16,06,49,20.30
2010,08,16,06,50,20.30
2010,08,16,06,51,20.30
2010,08,16,06,52,20.30
2010,08,16,06,53,20.30
2010,08,16,06,54,20.30
2010,08,16,06,55,20.30
2010,08,16,06,56,20.30
2010,08,16,06,57,20.30
2010,08,16,06,58,20.30
2010,08,16,06,59,20.30
2010,08,16,07,00,20.30
2010,08,16,07,01,20.20
2010,08,16,07,02,20.20
2010,08,16,07,03,20.20
2010,08,16,07,04,20.10
2010,08,16,07,05,20.10
2010,08,16,07,06,20.10
2010,08,16,07,07,20.10
2010,08,16,07,08,20.00
2010,08,16,07,09,20.00
2010,08,16,07,10,20.00
2010,08,16,07,11,20.00
2010,08,16,07,12,20.00
2010,08,16,07,13,20.00
2010,08,16,07,14,20.10
2010,08,16,07,15,20.20
2010,08,16,07,16,20.30
2010,08,16,07,17,20.30
2010,08,16,07,18,20.40
2010,08,16,07,19,20.40
2010,08,16,07,20,20.50
2010,08,16,07,21,20.50
2010,08,16,07,22,20.60
2010,08,16,07,23,20.60
2010,08,16,07,24,20.70
2010,08,16,07,25,20.70
2010,08,16,07,26,20.70
2010,08,16,07,27,20.70
2010,08,16,07,28,20.80
2010,08,16,07,29,20.80
2010,08,16,07,30,20.80
2010,08,16,07,31,20.90
2010,08,16,07,32,20.90
2010,08,16,07,33,21.00
2010,08,16,07,34,21.10
2010,08,16,07,35,21.20
2010,08,16,07,36,21.30
2010,08,16,07,37,21.40
2010,08,16,07,38,21.50
2010,08,16,07,39,21.60
2010,08,16,07,40,21.80
2010,08,16,07,41,21.80
2010,08,16,07,42,21.90
2010,08,16,07,43,22.10
2010,08,16,07,44,22.20
2010,08,16,07,45,22.30
2010,08,16,07,46,22.30
2010,08,16,07,47,22.30
2010,08,16,07,48,22.40
2010,08,16,07,49,22.40
2010,08,16,07,50,22.50
2010,08,16,07,51,22.50
2010,08,16,07,52,22.50
2010,08,16,07,53,22.60
2010,08,16,07,54,22.60
2010,08,16,07,55,22.60
2010,08,16,07,56,22.60
2010,08,16,07,57,22.60
2010,08,16,07,58,22.60
2010,08,16,07,59,22.60
2010,08,16,08,00,22.70
2010,08,16,08,01,22.70
2010,08,16,08,02,22.80
2010,08,16,08,03,22.80
2010,08,16,08,04,22.90
2010,08,16,08,05,23.00
2010,08,16,08,06,23.10
2010,08,16,08,07,23.10
2010,08,16,08,08,23.20
2010,08,16,08,09,23.20
2010,08,16,08,10,23.30
2010,08,16,08,11,23.40
2010,08,16,08,12,23.50
2010,08,16,08,13,23.60
2010,08,16,08,14,23.60
2010,08,16,08,15,23.70
2010,08,16,08,16,23.80
2010,08,16,08,17,23.90
2010,08,16,08,18,24.00
2010,08,16,08,19,24.00
2010,08,16,08,20,24.10
2010,08,16,08,21,24.20
2010,08,16,08,22,24.20
2010,08,16,08,23,24.30
2010,08,16,08,24,24.30
2010,08,16,08,25,24.30
2010,08,16,08,26,24.30
2010,08,16,08,27,24.30
2010,08,16,08,28,24.30
2010,08,16,08,29,24.30
2010,08,16,08,30,24.40
2010,08,16,08,31,24.40
2010,08,16,08,32,24.40
2010,08,16,08,33,24.40
2010,08,16,08,34,24.40
2010,08,16,08,35,24.40
2010,08,16,08,36,24.40
2010,08,16,08,37,24.50
2010,08,16,08,38,24.50
2010,08,16,08,39,24.50
2010,08,16,08,40,24.60
2010,08,16,08,41,24.60
2010,08,16,08,42,24.60
2010,08,16,08,43,24.60
2010,08,16,08,44,24.60
2010,08,16,08,45,24.60
2010,08,16,08,46,24.60
2010,08,16,08,47,24.60
2010,08,16,08,48,24.60
2010,08,16,08,49,24.60
2010,08,16,08,50,24.60
2010,08,16,08,51,24.70
2010,08,16,08,52,24.60
2010,08,16,08,53,24.60
2010,08,16,08,54,24.60
2010,08,16,08,55,24.60
2010,08,16,08,56,24.60
2010,08,16,08,57,24.70
2010,08,16,08,58,24.70
2010,08,16,08,59,24.70
2010,08,16,09,00,24.70
2010,08,16,09,01,24.70
2010,08,16,09,02,24.70
2010,08,16,09,03,24.80
2010,08,16,09,04,24.80
2010,08,16,09,05,24.90
2010,08,16,09,06,24.90
2010,08,16,09,07,24.90
2010,08,16,09,08,25.00
2010,08,16,09,09,25.00
2010,08,16,09,10,25.10
2010,08,16,09,11,25.10
2010,08,16,09,12,25.10
2010,08,16,09,13,25.10
2010,08,16,09,14,25.00
2010,08,16,09,15,24.90
2010,08,16,09,16,24.80
2010,08,16,09,17,24.70
2010,08,16,09,18,24.60
2010,08,16,09,19,24.60
2010,08,16,09,20,24.50
2010,08,16,09,21,24.40
2010,08,16,09,22,24.30
2010,08,16,09,23,24.20
2010,08,16,09,24,24.20
2010,08,16,09,25,24.10
2010,08,16,09,26,24.10
2010,08,16,09,27,24.10
2010,08,16,09,28,24.00
2010,08,16,09,29,24.00
2010,08,16,09,30,24.00
2010,08,16,09,31,24.00
2010,08,16,09,32,23.90
2010,08,16,09,33,23.90
2010,08,16,09,34,23.90
2010,08,16,09,35,23.90
2010,08,16,09,36,23.90
2010,08,16,09,37,24.00
2010,08,16,09,38,24.00
2010,08,16,09,39,24.10
2010,08,16,09,40,24.20
2010,08,16,09,41,24.20
2010,08,16,09,42,24.30
2010,08,16,09,43,24.30
2010,08,16,09,44,24.30
2010,08,16,09,45,24.30
2010,08,16,09,46,24.30
2010,08,16,09,47,24.40
2010,08,16,09,48,24.40
2010,08,16,09,49,24.40
2010,08,16,09,50,24.40
2010,08,16,09,51,24.40
2010,08,16,09,52,24.30
2010,08,16,09,53,24.40
2010,08,16,09,54,24.40
2010,08,16,09,55,24.40
2010,08,16,09,56,24.40
2010,08,16,09,57,24.40
2010,08,16,09,58,24.40
2010,08,16,09,59,24.40
2010,08,16,10,00,24.40
2010,08,16,10,01,24.50
2010,08,16,10,02,24.50
2010,08,16,10,03,24.50
2010,08,16,10,04,24.50
2010,08,16,10,05,24.50
2010,08,16,10,06,24.50
2010,08,16,10,07,24.50
2010,08,16,10,08,24.50
2010,08,16,10,09,24.40
2010,08,16,10,10,24.40
2010,08,16,10,11,24.40
2010,08,16,10,12,24.40
2010,08,16,10,13,24.40
2010,08,16,10,14,24.40
2010,08,16,10,15,24.50
2010,08,16,10,16,24.50
2010,08,16,10,17,24.40
2010,08,16,10,18,24.40
2010,08,16,10,19,24.30
2010,08,16,10,20,24.30
2010,08,16,10,21,24.30
2010,08,16,10,22,24.30
2010,08,16,10,23,24.30
2010,08,16,10,24,24.40
2010,08,16,10,25,24.40
2010,08,16,10,26,24.40
2010,08,16,10,27,24.40
2010,08,16,10,28,24.30
2010,08,16,10,29,24.30
2010,08,16,10,30,24.30
2010,08,16,10,31,24.40
2010,08,16,10,32,24.40
2010,08,16,10,33,24.50
2010,08,16,10,34,24.60
2010,08,16,10,35,24.70
2010,08,16,10,36,24.70
2010,08,16,10,37,24.80
2010,08,16,10,38,24.80
2010,08,16,10,39,24.80
2010,08,16,10,40,24.80
2010,08,16,10,41,24.80
2010,08,16,10,42,24.80
2010,08,16,10,43,24.80
2010,08,16,10,44,24.80
2010,08,16,10,45,24.80
2010,08,16,10,46,24.70
2010,08,16,10,47,24.70
2010,08,16,10,48,24.60
2010,08,16,10,49,24.60
2010,08,16,10,50,24.60
2010,08,16,10,51,24.60
2010,08,16,10,52,24.60
2010,08,16,10,53,24.50
2010,08,16,10,54,24.50
2010,08,16,10,55,24.50
2010,08,16,10,56,24.50
2010,08,16,10,57,24.60
2010,08,16,10,58,24.60
2010,08,16,10,59,24.70
2010,08,16,11,00,24.70
2010,08,16,11,01,24.80
2010,08,16,11,02,24.80
2010,08,16,11,03,24.80
2010,08,16,11,04,24.80
2010,08,16,11,05,24.80
2010,08,16,11,06,24.90
2010,08,16,11,07,24.90
2010,08,16,11,08,25.00
2010,08,16,11,09,25.10
2010,08,16,11,10,25.20
2010,08,16,11,11,25.20
2010,08,16,11,12,25.20
2010,08,16,11,13,25.10
2010,08,16,11,14,25.00
2010,08,16,11,15,25.00
2010,08,16,11,16,25.00
2010,08,16,11,17,25.00
2010,08,16,11,18,25.00
2010,08,16,11,19,25.00
2010,08,16,11,20,25.00
2010,08,16,11,21,25.00
2010,08,16,11,22,25.00
2010,08,16,11,23,25.00
2010,08,16,11,24,25.10
2010,08,16,11,25,25.10
2010,08,16,11,26,25.10
2010,08,16,11,27,25.00
2010,08,16,11,28,24.90
2010,08,16,11,29,24.90
2010,08,16,11,30,24.90
2010,08,16,11,31,24.90
2010,08,16,11,32,24.90
2010,08,16,11,33,24.90
2010,08,16,11,34,24.90
2010,08,16,11,35,25.00
2010,08,16,11,36,25.10
2010,08,16,11,37,25.20
2010,08,16,11,38,25.30
2010,08,16,11,39,25.30
2010,08,16,11,40,25.30
2010,08,16,11,41,25.30
2010,08,16,11,42,25.30
2010,08,16,11,43,25.30
2010,08,16,11,44,25.30
2010,08,16,11,45,25.20
2010,08,16,11,46,25.10
2010,08,16,11,47,25.00
2010,08,16,11,48,25.00
2010,08,16,11,49,25.00
2010,08,16,11,50,25.00
2010,08,16,11,51,25.10
2010,08,16,11,52,25.10
2010,08,16,11,53,25.10
2010,08,16,11,54,25.10
2010,08,16,11,55,25.10
2010,08,16,11,56,25.20
2010,08,16,11,57,25.30
2010,08,16,11,58,25.30
2010,08,16,11,59,25.40
2010,08,16,12,00,25.40
2010,08,16,12,01,25.50
2010,08,16,12,02,25.60
2010,08,16,12,03,25.60
2010,08,16,12,04,25.60
2010,08,16,12,05,25.60
2010,08,16,12,06,25.60
2010,08,16,12,07,25.60
2010,08,16,12,08,25.50
2010,08,16,12,09,25.40
2010,08,16,12,10,25.50
2010,08,16,12,11,25.50
2010,08,16,12,12,25.60
2010,08,16,12,13,25.70
2010,08,16,12,14,25.80
2010,08,16,12,15,25.90
2010,08,16,12,16,25.90
2010,08,16,12,17,25.90
2010,08,16,12,18,25.90
2010,08,16,12,19,25.90
2010,08,16,12,20,25.90
2010,08,16,12,21,25.90
2010,08,16,12,22,25.90
2010,08,16,12,23,25.90
2010,08,16,12,24,25.90
2010,08,16,12,25,25.80
2010,08,16,12,26,25.90
2010,08,16,12,27,25.90
2010,08,16,12,28,25.90
2010,08,16,12,29,25.90
2010,08,16,12,30,26.00
2010,08,16,12,31,26.10
2010,08,16,12,32,26.10
2010,08,16,12,33,26.10
2010,08,16,12,34,26.10
2010,08,16,12,35,26.10
2010,08,16,12,36,26.20
2010,08,16,12,37,26.20
2010,08,16,12,38,26.20
2010,08,16,12,39,26.10
2010,08,16,12,40,26.10
2010,08,16,12,41,26.10
2010,08,16,12,42,26.20
2010,08,16,12,43,26.30
2010,08,16,12,44,26.30
2010,08,16,12,45,26.30
2010,08,16,12,46,26.30
2010,08,16,12,47,26.30
2010,08,16,12,48,26.30
2010,08,16,12,49,26.50
2010,08,16,12,50,26.60
2010,08,16,12,51,26.60
2010,08,16,12,52,26.60
2010,08,16,12,53,26.60
2010,08,16,12,54,26.60
2010,08,16,12,55,26.60
2010,08,16,12,56,26.60
2010,08,16,12,57,26.60
2010,08,16,12,58,26.60
2010,08,16,12,59,26.60
2010,08,16,13,00,26.60
2010,08,16,13,01,26.60
2010,08,16,13,02,26.70
2010,08,16,13,03,26.70
2010,08,16,13,04,26.70
2010,08,16,13,05,26.70
2010,08,16,13,06,26.80
2010,08,16,13,07,26.80
2010,08,16,13,08,26.80
2010,08,16,13,09,26.80
2010,08,16,13,10,26.80
2010,08,16,13,11,26.80
2010,08,16,13,12,26.80
2010,08,16,13,13,26.80
2010,08,16,13,14,26.90
2010,08,16,13,15,26.90
2010,08,16,13,16,26.90
2010,08,16,13,17,26.90
2010,08,16,13,18,26.80
2010,08,16,13,19,26.80
2010,08,16,13,20,26.80
2010,08,16,13,21,26.80
2010,08,16,13,22,26.80
2010,08,16,13,23,26.80
2010,08,16,13,24,26.70
2010,08,16,13,25,26.70
2010,08,16,13,26,26.60
2010,08,16,13,27,26.60
2010,08,16,13,28,26.60
2010,08,16,13,29,26.60
2010,08,16,13,30,26.50
2010,08,16,13,31,26.50
2010,08,16,13,32,26.60
2010,08,16,13,33,26.60
2010,08,16,13,34,26.60
2010,08,16,13,35,26.60
2010,08,16,13,36,26.60
2010,08,16,13,37,26.70
2010,08,16,13,38,26.70
2010,08,16,13,39,26.70
2010,08,16,13,40,26.70
2010,08,16,13,41,26.70
2010,08,16,13,42,26.80
2010,08,16,13,43,26.80
2010,08,16,13,44,26.70
2010,08,16,13,45,26.70
2010,08,16,13,46,26.70
2010,08,16,13,47,26.70
2010,08,16,13,48,26.80
2010,08,16,13,49,26.80
2010,08,16,13,50,26.80
2010,08,16,13,51,26.90
2010,08,16,13,52,26.90
2010,08,16,13,53,26.90
2010,08,16,13,54,26.90
2010,08,16,13,55,26.90
2010,08,16,13,56,26.90
2010,08,16,13,57,26.90
2010,08,16,13,58,26.80
2010,08,16,13,59,26.90
2010,08,16,14,00,26.90
2010,08,16,14,01,27.00
2010,08,16,14,02,27.00
2010,08,16,14,03,27.10
2010,08,16,14,04,27.20
2010,08,16,14,05,27.20
2010,08,16,14,06,27.30
2010,08,16,14,07,27.30
2010,08,16,14,08,27.40
2010,08,16,14,09,27.40
2010,08,16,14,10,27.50
2010,08,16,14,11,27.50
2010,08,16,14,12,27.60
2010,08,16,14,13,27.60
2010,08,16,14,14,27.70
2010,08,16,14,15,27.70
2010,08,16,14,16,27.80
2010,08,16,14,17,27.90
2010,08,16,14,18,27.90
2010,08,16,14,19,28.00
2010,08,16,14,20,28.00
2010,08,16,14,21,28.00
2010,08,16,14,22,28.10
2010,08,16,14,23,28.20
2010,08,16,14,24,28.30
2010,08,16,14,25,28.50
2010,08,16,14,26,28.70
2010,08,16,14,27,28.70
2010,08,16,14,28,28.70
2010,08,16,14,29,28.70
2010,08,16,14,30,28.70
2010,08,16,14,31,28.70
2010,08,16,14,32,28.60
2010,08,16,14,33,28.60
2010,08,16,14,34,28.60
2010,08,16,14,35,28.50
2010,08,16,14,36,28.60
2010,08,16,14,37,28.70
2010,08,16,14,38,28.70
2010,08,16,14,39,28.70
2010,08,16,14,40,28.70
2010,08,16,14,41,28.60
2010,08,16,14,42,28.60
2010,08,16,14,43,28.60
2010,08,16,14,44,28.60
2010,08,16,14,45,28.60
2010,08,16,14,46,28.60
2010,08,16,14,47,28.60
2010,08,16,14,48,28.60
2010,08,16,14,49,28.70
2010,08,16,14,50,28.70
2010,08,16,14,51,28.70
2010,08,16,14,52,28.80
2010,08,16,14,53,28.80
2010,08,16,14,54,28.80
2010,08,16,14,55,28.80
2010,08,16,14,56,28.90
2010,08,16,14,57,28.90
2010,08,16,14,58,28.90
2010,08,16,14,59,28.90
2010,08,16,15,00,29.00
2010,08,16,15,01,29.00
2010,08,16,15,02,29.10
2010,08,16,15,03,29.20
2010,08,16,15,04,29.30
2010,08,16,15,05,29.30
2010,08,16,15,06,29.30
2010,08,16,15,07,29.40
2010,08,16,15,08,29.50
2010,08,16,15,09,29.50
2010,08,16,15,10,29.50
2010,08,16,15,11,29.40
2010,08,16,15,12,29.40
2010,08,16,15,13,29.40
2010,08,16,15,14,29.40
2010,08,16,15,15,29.50
2010,08,16,15,16,29.60
2010,08,16,15,17,29.60
2010,08,16,15,18,29.70
2010,08,16,15,19,29.50
2010,08,16,15,20,29.50
2010,08,16,15,21,29.40
2010,08,16,15,22,29.40
2010,08,16,15,23,29.50
2010,08,16,15,24,29.60
2010,08,16,15,25,29.60
2010,08,16,15,26,29.60
2010,08,16,15,27,29.70
2010,08,16,15,28,29.70
2010,08,16,15,29,29.70
2010,08,16,15,30,29.70
2010,08,16,15,31,29.80
2010,08,16,15,32,29.80
2010,08,16,15,33,29.90
2010,08,16,15,34,29.90
2010,08,16,15,35,29.90
2010,08,16,15,36,29.90
2010,08,16,15,37,29.90
2010,08,16,15,38,30.00
2010,08,16,15,39,30.00
2010,08,16,15,40,30.10
2010,08,16,15,41,30.10
2010,08,16,15,42,30.10
2010,08,16,15,43,30.00
2010,08,16,15,44,30.00
2010,08,16,15,45,29.90
2010,08,16,15,46,30.00
2010,08,16,15,47,30.10
2010,08,16,15,48,30.10
2010,08,16,15,49,30.10
2010,08,16,15,50,30.00
2010,08,16,15,51,29.90
2010,08,16,15,52,29.90
2010,08,16,15,53,29.80
2010,08,16,15,54,29.80
2010,08,16,15,55,29.90
2010,08,16,15,56,29.90
2010,08,16,15,57,29.90
2010,08,16,15,58,30.00
2010,08,16,15,59,30.00
2010,08,16,16,00,30.10
2010,08,16,16,01,30.10
2010,08,16,16,02,30.10
2010,08,16,16,03,30.10
2010,08,16,16,04,30.10
2010,08,16,16,05,30.10
2010,08,16,16,06,30.10
2010,08,16,16,07,30.10
2010,08,16,16,08,30.10
2010,08,16,16,09,30.20
2010,08,16,16,10,30.30
2010,08,16,16,11,30.30
2010,08,16,16,12,30.40
2010,08,16,16,13,30.50
2010,08,16,16,14,30.60
2010,08,16,16,15,30.60
2010,08,16,16,16,30.60
2010,08,16,16,17,30.60
2010,08,16,16,18,30.50
2010,08,16,16,19,30.40
2010,08,16,16,20,30.40
2010,08,16,16,21,30.50
2010,08,16,16,22,30.60
2010,08,16,16,23,30.60
2010,08,16,16,24,30.60
2010,08,16,16,25,30.60
2010,08,16,16,26,30.60
2010,08,16,16,27,30.60
2010,08,16,16,28,30.40
2010,08,16,16,29,30.30
2010,08,16,16,30,30.30
2010,08,16,16,31,30.30
2010,08,16,16,32,30.30
2010,08,16,16,33,30.20
2010,08,16,16,34,30.30
2010,08,16,16,35,30.30
2010,08,16,16,36,30.20
2010,08,16,16,37,30.20
2010,08,16,16,38,30.20
2010,08,16,16,39,30.30
2010,08,16,16,40,30.30
2010,08,16,16,41,30.30
2010,08,16,16,42,30.30
2010,08,16,16,43,30.30
2010,08,16,16,44,30.30
2010,08,16,16,45,30.40
2010,08,16,16,46,30.40
2010,08,16,16,47,30.50
2010,08,16,16,48,30.60
2010,08,16,16,49,30.60
2010,08,16,16,50,30.50
2010,08,16,16,51,30.40
2010,08,16,16,52,30.40
2010,08,16,16,53,30.40
2010,08,16,16,54,30.40
2010,08,16,16,55,30.40
2010,08,16,16,56,30.50
2010,08,16,16,57,30.60
2010,08,16,16,58,30.60
2010,08,16,16,59,30.70
2010,08,16,17,00,30.80
2010,08,16,17,01,30.80
2010,08,16,17,02,30.70
2010,08,16,17,03,30.70
2010,08,16,17,04,30.70
2010,08,16,17,05,30.70
2010,08,16,17,06,30.70
2010,08,16,17,07,30.60
2010,08,16,17,08,30.60
2010,08,16,17,09,30.60
2010,08,16,17,10,30.50
2010,08,16,17,11,30.40
2010,08,16,17,12,30.40
2010,08,16,17,13,30.20
2010,08,16,17,14,30.20
2010,08,16,17,15,30.10
2010,08,16,17,16,30.10
2010,08,16,17,17,30.10
2010,08,16,17,18,30.10
2010,08,16,17,19,30.00
2010,08,16,17,20,30.00
2010,08,16,17,21,30.00